www.pogodaiklimat.ru
Время
(UTC), дата
09 15.10
12 15.10
15 15.10
18 15.10
21 15.10
00 16.10
03 16.10
06 16.10
09 16.10
12 16.10
15 16.10
18 16.10
21 16.10
00 17.10
03 17.10
06 17.10
09 17.10
12 17.10
15 17.10
18 17.10
21 17.10
00 18.10
03 18.10
06 18.10
09 18.10
12 18.10
15 18.10
18 18.10
21 18.10
00 19.10
03 19.10
06 19.10
09 19.10
12 19.10
15 19.10
18 19.10
21 19.10
00 20.10
03 20.10
06 20.10
09 20.10
12 20.10
15 20.10
18 20.10
21 20.10
00 21.10
03 21.10
06 21.10
09 21.10
12 21.10
15 21.10
18 21.10
21 21.10
00 22.10
03 22.10
06 22.10
Ветер
(напр.,м/с)
Видим. Явления Облачность Т
(С)
Тd
(С)
f
(%)
Тe
(С)
Тes
(С)
Комфортность P
(гПа)
Po
(гПа)
Тmin
(С)
Tmax
(С)
R
(мм)
R24
(мм)
S
(см)
штиль 0 20 км 8/1 600 м
[Sc Ac trans]
-3.5 -7.7 73 -4 -4 по сезону 1020.1 1010.3
ЮВ 3 20 км 4/3 600 м
[Sc Ac trans]
-4.2 -8.5 72 -9 -9 по сезону 1020.0 1010.2
В 1 20 км 4/3 600 м
[Sc Ac lent]
-5.1 -9.0 74 -7 -7 по сезону 1019.8 1010.0
ЮВ 3 10 км 3/3 600 м
[Sc]
-5.7 -9.8 73 -11 -11 по сезону 1019.5 1009.6 -3.2
ЮВ 6 10 км 1/1 600 м
[Sc]
-4.1 -8.4 72 -11 -11 по сезону 1019.0 1009.2
ЮВ 6 10 км 3/1 600 м
[Sc Ci fib]
-4.1 -8.0 74 -12 -12 прохладно 1018.2 1008.4
ЮВ 6 10 км 8/3 600 м
[Sc Ac trans]
-2.8 -6.8 74 -10 -10 по сезону 1017.0 1007.3 -6.2
ЮВ 7 20 км 6/4 600 м
[Sc Ci fib]
-3.0 -6.5 77 -11 -11 по сезону 1015.8 1006.1 -6.2 14
ЮВ 8-10
{11}
20 км 8/4 600 м
[Sc Ac trans]
-2.4 -6.3 75 -10 -10 по сезону 1014.1 1004.4
ЮВ 9-12
{13}
20 км {ливн. осадки} 9/6 600 м
[Cb cap Ac trans]
-1.5 -5.1 76 -10 -10 по сезону 1012.2 1002.6
Ю 6-8
{14}
20 км слаб. ливневой снег 10/10 600 м
[Cb cap]
-2.0 -3.6 89 -9 -9 по сезону 1011.2 1001.6 0.2
ЮВ 6 10 км в посл. час ливневой снег 10/8 300 м
[Frnb Ac und]
-1.6 -3.5 87 -9 -9 по сезону 1009.6 1000.0 -1.1 0.5
С 1 4000 м слаб. снег 10/0 300 м
[Ac As]
-2.0 -3.0 93 -4 -4 по сезону 1009.2 999.6
Ю 2 10 км слаб. снег 10/0 300 м
[Ac As]
-1.7 -3.5 87 -6 -6 по сезону 1008.3 998.7
З 1 10 км слаб. снег 10/0 300 м
[Ac As]
-1.9 -4.5 82 -4 -4 по сезону 1007.4 997.8 -2.4 2
ЮЗ 2 20 км {снег} 9/8 600 м
[Sc Ac trans]
-1.7 -7.2 66 -5 -5 по сезону 1006.6 997.0 -2.1 0.3 16
ЮВ 2 50 км 10/10 600 м
[Sc]
-2.2 -7.2 69 -6 -6 по сезону 1006.4 996.9
ЮВ 3 50 км 10/10 600 м
[Sc]
-2.3 -6.7 72 -7 -7 по сезону 1005.3 995.7
Ю 1 50 км {ливн. осадки} 10/10 600 м
[Sc]
-2.5 -6.6 73 -4 -4 по сезону 1004.6 995.0
С 6 10 км слаб. снег 10/8 600 м
[Sc As op]
-2.9 -5.8 80 -10 -10 по сезону 1003.9 994.3 -1.7 0.0
С 6 4000 м снег {метель} 10/0 300 м
[As op]
-3.9 -5.7 87 -11 -11 прохладно 1003.4 993.8
С 5 10 км слаб. снег {метель} 10/6 600 м
[Sc Ac As]
-3.4 -6.7 78 -10 -10 по сезону 1003.2 993.6
С 5 10 км позёмок {снег} 9/5 600 м
[Sc Ac trans]
-3.9 -7.9 74 -11 -11 прохладно 1003.5 993.9 -4.0 1
С 6-9
{10}
10 км слаб. снег {метель} 10/4 600 м
[Sc As op]
-4.4 -7.3 80 -12 -12 прохладно 1003.9 994.3 -4.4 1 17
С 5 50 км {снег, метель} 10/3 600 м
[Sc Ac As]
-4.5 -10.0 65 -11 -11 прохладно 1004.7 995.0
С 5 50 км {снег, метель} 10/0
[Ac As]
-4.5 -10.9 61 -11 -11 прохладно 1004.8 995.2
С 5-7
{10}
20 км в посл. час снег 10/0
[Ac As]
-5.1 -10.8 64 -12 -12 прохладно 1005.6 996.0 0.5
С 4 10 км {снег} 9/3 600 м
[Sc Ac trans]
-6.3 -13.0 59 -13 -13 холодно 1006.3 996.6 -4.3 0.2
С 5 10 км 9/0
[Ac trans Ci fib]
-7.9 -14.3 60 -15 -15 холодно 1007.5 997.7
С 6 10 км 6/0
[Ac trans Ci fib]
-9.0 -16.5 54 -17 -17 очень
холодно
1009.1 999.2
С 5-7
{10}
10 км 8/0
[Ac trans Ci fib]
-8.9 -15.4 59 -16 -16 очень
холодно
1010.6 1000.7 -9.3
С 5-9
{11}
20 км 6/3 300 м
[St Ac trans]
-8.5 -17.3 49 -16 -16 очень
холодно
1011.9 1002.0 -9.3 17
С 4-5
{12}
20 км 4/4 600 м
[Sc]
-8.7 -16.4 54 -15 -15 очень
холодно
1012.6 1002.7
СЗ 2 20 км 6/4 600 м
[Sc Ac trans]
-7.3 -14.4 57 -11 -11 прохладно 1013.0 1003.2
З 2 20 км 8/4 600 м
[Sc Ac trans]
-6.6 -12.1 65 -11 -11 прохладно 1012.6 1002.8
ЮВ 4 10 км в посл. час ливневой снег 9/8 600 м
[Cb cap Ac trans]
-7.7 -11.5 74 -14 -14 холодно 1011.3 1001.5 -6.5 0.0
ЮВ 3 10 км слаб. снег 10/4 600 м
[Sc As op]
-7.3 -10.0 81 -13 -13 холодно 1010.1 1000.3
С 2 4000 м снег 10/0 300 м
[As op]
-7.6 -9.2 88 -12 -12 по сезону 1008.2 998.4
СВ 4 10 км слаб. снег 10/0 300 м
[As op]
-7.9 -11.3 77 -15 -15 прохладно 1006.9 997.1 -8.0 1
С 6 10 км слаб. снег {метель} 10/4 600 м
[Sc As op]
-8.5 -12.6 72 -17 -17 холодно 1006.0 996.2 -8.5 1 22
С 7-10
{10}
20 км слаб. снег {метель} 9/3 600 м
[Sc Ac As]
-9.2 -12.7 76 -18 -18 холодно 1005.4 995.6
С 7-9
{12}
50 км позёмок {снег} 9/3 600 м
[Sc Ac As Ci fib]
-9.5 -13.3 74 -19 -19 очень
холодно
1005.1 995.3
С 6-8
{10}
20 км позёмок 8/3 600 м
[Sc Ac As]
-9.9 -13.8 73 -18 -18 холодно 1004.7 994.9 0.2
С 4 10 км в посл. час снег {метель} 9/6 600 м
[Sc Ac As]
-9.8 -13.7 73 -17 -17 холодно 1004.3 994.4 -8.5 0.0
С 3 10 км слаб. снег 10/4 600 м
[Sc As op]
-9.9 -14.4 70 -16 -16 холодно 1003.9 994.0
С 5 10 км {снег} 8/4 600 м
[Sc Ac trans]
-10.6 -15.1 69 -18 -18 холодно 1003.9 994.0
С 5 10 км 8/3 600 м
[Sc Ac trans]
-10.9 -16.5 63 -19 -19 очень
холодно
1003.5 993.6 -11.1 0.0
С 3 10 км 9/3 600 м
[Sc Ac trans Ci fib]
-10.4 -14.5 72 -16 -16 прохладно 1003.6 993.7 -11.4 20
С 4 20 км 9/1 600 м
[Sc Ac trans Ci fib]
-7.7 -14.5 58 -14 -14 прохладно 1003.6 993.9
С 6-8
{10}
20 км 8/0
[Ac trans Ci fib]
-6.7 -14.0 56 -14 -14 прохладно 1004.8 995.1
С 5 20 км 8/0
[Ac trans Ci fib]
-8.3 -14.8 59 -16 -16 прохладно 1005.5 995.7
С 6 10 км позёмок 8/0
[Ac trans Ci fib]
-9.4 -15.1 63 -18 -18 холодно 1005.6 995.8 -6.2
С 6-8
{10}
10 км {метель} 6/0
[Ac trans Ci fib]
-10.3 -15.6 65 -19 -19 очень
холодно
1006.0 996.1
С 6 10 км {метель} 8/0
[Ac trans Ci fib]
-10.4 -15.9 64 -19 -19 очень
холодно
1006.3 996.4
С 5 10 км 8/0
[Ac trans Ci fib]
-10.1 -12.7 81 -18 -18 холодно 1006.0 996.1 -10.6
СВ 2 10 км в посл. час снег 8/5 300 м
[St Ac trans]
-10.7 -16.1 64 -15 -15 прохладно 1005.9 996.0 -10.7 0.7 23
Местоположение метеостанции Баренцбург (Шпицберген, Россия): широта 78.07 долгота 14.25 высота над уровнем моря 75 м.
В архиве по умолчанию представлена погода в Баренцбурге за последнюю неделю. Архивные данные за месяц целиком и за предыдущие месяцы, начиная с января 2011 года, Вы можете получить, выбрав интересующий диапазон дат из раскрывающегося списка и нажав кнопку "Найти!".
*Определитесь, кто Вы:
Внимание! Время в таблицах - всемирное. Для получения местного времени необходимо прибавить поправку, которая равна 1 ч.
Смотрите также архив погоды в соседних городах и на ближайших метеорологических станциях:
Партнеры нашего сайта:      
Пояснения к столбцам:
  • Ветер - указаны скорость ветра в м/с - средняя за 10 мин, порывы в срок и между сроками (в фигурных скобках) и направление, откуда дует ветер: С - северный,
  • СВ - северо-восточный, В - восточный, ЮВ - юго-восточный, Ю - южный, ЮЗ - юго-западный, З - западный, СЗ - северо-западный.
  • Видимость - горизонтальная дальность видимости в метрах или километрах. При видимости от 1 до 10 км при отсутствии осадков обычно наблюдается дымка, при ухудшении видимости до 1 км и менее - туман. В сухую погоду видимость может ухудшаться дымом, пылью или мглою.
  • Явления - указаны атмосферные явления, наблюдавшиеся в срок или в последний час перед сроком; фигурными скобками обозначены явления, наблюдавшиеся между сроками (за 1-3 часа до срока); квадратными скобками обозначены град или гололедные отложения с указанием их диаметра в мм.
  • Облачность - указаны через наклонную черту общая и нижняя облачность в баллах и высота нижней границы облаков в метрах; квадратными скобками обозначены формы облаков: Ci - перистые, Cs - перисто-слоистые, Cc - перисто-кучевые, Ac - высококучевые, As - высокослоистые, Sc - слоисто-кучевые, Ns - слоисто-дождевые, Cu - кучевые, Cb - кучево-дождевые. Подробнее классификацию облаков см. в Атласе облаков (PDF).
  • T - Температура воздуха - температура, измеренная на высоте 2 м над землей.
  • Td - Температура точки росы - температура, при понижении до которой содержащийся в воздухе водяной пар достигнет насыщения.
  • f - Относительная влажность воздуха - влажноcть воздуха, измеренная на высоте 2 м над землей.
  • Te - Эффективная температура - температура, которую ощущает одетый по сезону человек в тени. Характеристика душности погоды. При расчете учитывается влияние влажности воздуха и скорости ветра на теплоощущения человека.
  • Tes - Эффективная температура на солнце - температура, которую ощущает человек, с поправкой на солнечный нагрев. Характеристика знойности погоды. Зависит от высоты солнца над горизонтом, облачности и скорости ветра. Ночью, в пасмурную погоду, а также при ветре 12 м/с и более поправка равна нулю.
  • P - Атмосферное давление - приведенное к уровню моря атмосферное давление.
  • Po - Атмосферное давление - измеренное на уровне метеостанции атмосферное давление.
  • Tmin - Минимальная температура - минимум температуры воздуха на высоте 2 м над землей.
  • Tmax - Максимальная температура - максимум температуры воздуха на высоте 2 м над землей.
  • R - Количество осадков - Количество выпавших осадков за период времени, мм. При наведении курсора мыши на число - период времени, за который выпало указанное количество осадков.
  • R24 - Количество осадков - Количество выпавших осадков за 24 часа, мм.
  • S - Снежный покров - Высота снежного покрова, см. При наведении курсора мыши на число - состояние снежного покрова и степень покрытия местности в баллах.